FORMOSAT 7-6 (44353 NORAD) Tracking and Keplerian Element Data

This shows tracking and keplerian element data for the satellite.

Feedback or suggestion? Click here.




ElementValue
Catalog44353
NameFORMOSAT 7-6
Epoch Orbit400
Epoch Day203.92972232
Epoch Year2019
RAAN30.7617
Inclination24.0084
Eccentricity0.0015968
Argument of Perigee129.12
Mean Anonmoly231.6671
Mean Motion14.53394922
Decay Rate3.657E-05
L11 44353U 19036Q 19203.92972232 .00003657 00000-0 81163-3 0 9992
L22 44353 24.0084 30.7617 0015968 129.1200 231.6671 14.53394922 4009

Live tracking and technical data element details for FORMOSAT 7-6 (NORAD 44353). FORMOSAT 7-6 can be tracked NOW for your location showing map with azimuth and elevation plus other details from your city location.

Track the satellite on the map from your city or location and see movement details for azimuth, elevation, latitude, longitude, range, height, and movement on the map or in text.







IsCatalogInMostPopularTable: catalog: 44353, numindb: 16
Update: records affected: 1



GetName: 44353 FORMOSAT 7-6

Hit Count: updated at: Thu, 12 Dec 2019 00:23:43 GMT